Time,TemperatureF,DewpointF,PressureIn,WindDirection,WindDirectionDegrees,WindSpeedMPH,WindSpeedGustMPH,Humidity,HourlyPrecipIn,Conditions,Clouds,dailyrainin,SoftwareType,DateUTC
2013-05-03 00:02:00,59.4,45.5,30.31,North,360,3.0,5.0,60,0.00,,,0.00,Wunderground v.1.15,2013-05-03 04:02:00,
2013-05-03 00:04:00,59.2,45.3,30.31,North,360,3.0,5.0,60,0.00,,,0.00,Wunderground v.1.15,2013-05-03 04:04:00,
2013-05-03 00:08:00,59.0,45.6,30.31,North,360,3.0,5.0,61,0.00,,,0.00,Wunderground v.1.15,2013-05-03 04:08:00,
2013-05-03 00:10:00,59.0,45.6,30.31,North,360,3.0,3.0,61,0.00,,,0.00,Wunderground v.1.15,2013-05-03 04:10:00,
2013-05-03 00:14:00,58.8,45.4,30.31,North,360,3.0,5.0,61,0.00,,,0.00,Wunderground v.1.15,2013-05-03 04:14:00,
2013-05-03 00:18:00,58.5,45.5,30.31,North,360,3.0,5.0,62,0.00,,,0.00,Wunderground v.1.15,2013-05-03 04:18:00,
2013-05-03 00:20:00,58.3,45.3,30.31,North,360,3.0,3.0,62,0.00,,,0.00,Wunderground v.1.15,2013-05-03 04:20:00,
2013-05-03 00:24:00,58.2,45.7,30.30,North,360,3.0,4.0,63,0.00,,,0.00,Wunderground v.1.15,2013-05-03 04:24:00,
2013-05-03 00:26:00,58.2,45.7,30.30,North,360,3.0,4.0,63,0.00,,,0.00,Wunderground v.1.15,2013-05-03 04:26:00,
2013-05-03 00:28:00,58.1,45.6,30.30,North,360,3.0,4.0,63,0.00,,,0.00,Wunderground v.1.15,2013-05-03 04:28:00,
2013-05-03 00:32:00,58.0,45.9,30.30,North,360,3.0,5.0,64,0.00,,,0.00,Wunderground v.1.15,2013-05-03 04:32:00,
2013-05-03 00:34:00,57.8,45.7,30.30,North,360,3.0,5.0,64,0.00,,,0.00,Wunderground v.1.15,2013-05-03 04:34:00,
2013-05-03 00:36:00,57.8,45.7,30.30,North,360,3.0,5.0,64,0.00,,,0.00,Wunderground v.1.15,2013-05-03 04:36:00,
2013-05-03 00:40:00,57.5,45.8,30.30,North,360,4.0,4.0,65,0.00,,,0.00,Wunderground v.1.15,2013-05-03 04:40:00,
2013-05-03 00:42:00,57.3,46.0,30.30,North,360,4.0,4.0,66,0.00,,,0.00,Wunderground v.1.15,2013-05-03 04:42:00,
2013-05-03 00:46:00,57.0,45.7,30.30,North,360,4.0,4.0,66,0.00,,,0.00,Wunderground v.1.15,2013-05-03 04:46:00,
2013-05-03 00:50:00,56.9,46.1,30.30,North,360,4.0,4.0,67,0.00,,,0.00,Wunderground v.1.15,2013-05-03 04:50:00,
2013-05-03 00:52:00,56.8,46.0,30.30,North,360,4.0,5.0,67,0.00,,,0.00,Wunderground v.1.15,2013-05-03 04:52:00,
2013-05-03 00:54:00,56.7,45.9,30.30,North,360,4.0,5.0,67,0.00,,,0.00,Wunderground v.1.15,2013-05-03 04:54:00,
2013-05-03 00:56:00,56.6,46.2,30.30,North,360,3.0,5.0,68,0.00,,,0.00,Wunderground v.1.15,2013-05-03 04:56:00,
2013-05-03 01:00:00,56.6,46.2,30.30,North,360,3.0,3.0,68,0.00,,,0.00,Wunderground v.1.15,2013-05-03 05:00:00,
2013-05-03 01:02:00,56.7,46.3,30.30,North,360,2.0,3.0,68,0.00,,,0.00,Wunderground v.1.15,2013-05-03 05:02:00,
2013-05-03 01:04:00,56.7,46.3,30.30,North,360,2.0,3.0,68,0.00,,,0.00,Wunderground v.1.15,2013-05-03 05:04:00,
2013-05-03 01:08:00,56.8,46.3,30.30,North,360,1.0,3.0,68,0.00,,,0.00,Wunderground v.1.15,2013-05-03 05:08:00,
2013-05-03 01:10:00,56.8,46.3,30.30,North,360,2.0,2.0,68,0.00,,,0.00,Wunderground v.1.15,2013-05-03 05:10:00,
2013-05-03 01:12:00,56.7,46.3,30.30,North,360,2.0,2.0,68,0.00,,,0.00,Wunderground v.1.15,2013-05-03 05:12:00,
2013-05-03 01:14:00,56.7,46.3,30.30,North,360,2.0,2.0,68,0.00,,,0.00,Wunderground v.1.15,2013-05-03 05:14:00,
2013-05-03 01:18:00,56.5,46.1,30.30,North,360,2.0,3.0,68,0.00,,,0.00,Wunderground v.1.15,2013-05-03 05:18:00,
2013-05-03 01:22:00,56.4,46.4,30.30,North,360,2.0,2.0,69,0.00,,,0.00,Wunderground v.1.15,2013-05-03 05:22:00,
2013-05-03 01:24:00,56.3,46.3,30.30,North,360,2.0,3.0,69,0.00,,,0.00,Wunderground v.1.15,2013-05-03 05:24:00,
2013-05-03 01:26:00,56.2,46.2,30.30,North,360,2.0,3.0,69,0.00,,,0.00,Wunderground v.1.15,2013-05-03 05:26:00,
2013-05-03 01:28:00,56.0,46.0,30.30,North,360,2.0,3.0,69,0.00,,,0.00,Wunderground v.1.15,2013-05-03 05:28:00,
2013-05-03 01:30:00,56.0,46.4,30.30,North,360,3.0,3.0,70,0.00,,,0.00,Wunderground v.1.15,2013-05-03 05:30:00,
2013-05-03 01:36:00,55.8,46.2,30.30,North,360,3.0,3.0,70,0.00,,,0.00,Wunderground v.1.15,2013-05-03 05:36:00,
2013-05-03 01:38:00,55.8,46.2,30.30,North,360,3.0,3.0,70,0.00,,,0.00,Wunderground v.1.15,2013-05-03 05:38:00,
2013-05-03 01:42:00,55.6,46.3,30.30,North,360,3.0,5.0,71,0.00,,,0.00,Wunderground v.1.15,2013-05-03 05:42:00,
2013-05-03 01:44:00,55.4,46.2,30.30,North,360,3.0,5.0,71,0.00,,,0.00,Wunderground v.1.15,2013-05-03 05:44:00,
2013-05-03 01:48:00,55.2,46.0,30.30,North,360,4.0,5.0,71,0.00,,,0.00,Wunderground v.1.15,2013-05-03 05:48:00,
2013-05-03 01:50:00,55.2,46.3,30.30,North,360,4.0,4.0,72,0.00,,,0.00,Wunderground v.1.15,2013-05-03 05:50:00,
2013-05-03 01:52:00,55.3,46.4,30.30,North,360,3.0,4.0,72,0.00,,,0.00,Wunderground v.1.15,2013-05-03 05:52:00,
2013-05-03 01:54:00,55.6,46.7,30.30,North,360,3.0,4.0,72,0.00,,,0.00,Wunderground v.1.15,2013-05-03 05:54:00,
2013-05-03 01:56:00,55.6,46.3,30.30,North,360,2.0,4.0,71,0.00,,,0.00,Wunderground v.1.15,2013-05-03 05:56:00,
2013-05-03 01:58:00,55.7,46.4,30.30,North,360,2.0,4.0,71,0.00,,,0.00,Wunderground v.1.15,2013-05-03 05:58:00,
2013-05-03 02:00:00,55.7,46.4,30.30,North,360,2.0,4.0,71,0.00,,,0.00,Wunderground v.1.15,2013-05-03 06:00:00,
2013-05-03 02:02:00,55.6,46.3,30.30,North,360,2.0,4.0,71,0.00,,,0.00,Wunderground v.1.15,2013-05-03 06:02:00,
2013-05-03 02:04:00,55.5,46.2,30.30,North,360,2.0,4.0,71,0.00,,,0.00,Wunderground v.1.15,2013-05-03 06:04:00,
2013-05-03 02:08:00,55.4,46.2,30.29,North,360,3.0,4.0,71,0.00,,,0.00,Wunderground v.1.15,2013-05-03 06:08:00,
2013-05-03 02:12:00,55.2,46.3,30.29,North,360,2.0,2.0,72,0.00,,,0.00,Wunderground v.1.15,2013-05-03 06:12:00,
2013-05-03 02:16:00,55.0,46.1,30.29,North,360,2.0,2.0,72,0.00,,,0.00,Wunderground v.1.15,2013-05-03 06:16:00,
2013-05-03 02:22:00,54.8,46.3,30.29,North,360,1.0,2.0,73,0.00,,,0.00,Wunderground v.1.15,2013-05-03 06:22:00,
2013-05-03 02:24:00,54.8,46.3,30.29,North,360,1.0,2.0,73,0.00,,,0.00,Wunderground v.1.15,2013-05-03 06:24:00,
2013-05-03 02:26:00,54.8,46.3,30.29,North,360,1.0,2.0,73,0.00,,,0.00,Wunderground v.1.15,2013-05-03 06:26:00,
2013-05-03 02:30:00,54.8,46.3,30.29,North,360,1.0,1.0,73,0.00,,,0.00,Wunderground v.1.15,2013-05-03 06:30:00,
2013-05-03 02:32:00,54.9,46.4,30.29,North,360,2.0,3.0,73,0.00,,,0.00,Wunderground v.1.15,2013-05-03 06:32:00,
2013-05-03 02:34:00,55.0,46.5,30.29,North,360,2.0,4.0,73,0.00,,,0.00,Wunderground v.1.15,2013-05-03 06:34:00,
2013-05-03 02:36:00,55.1,46.6,30.29,North,360,2.0,4.0,73,0.00,,,0.00,Wunderground v.1.15,2013-05-03 06:36:00,
2013-05-03 02:38:00,55.1,46.6,30.29,North,360,2.0,4.0,73,0.00,,,0.00,Wunderground v.1.15,2013-05-03 06:38:00,
2013-05-03 02:42:00,55.0,46.5,30.29,North,360,2.0,3.0,73,0.00,,,0.00,Wunderground v.1.15,2013-05-03 06:42:00,
2013-05-03 02:44:00,55.0,46.5,30.29,North,360,3.0,3.0,73,0.00,,,0.00,Wunderground v.1.15,2013-05-03 06:44:00,
2013-05-03 02:46:00,54.9,46.4,30.29,North,360,3.0,3.0,73,0.00,,,0.00,Wunderground v.1.15,2013-05-03 06:46:00,
2013-05-03 02:48:00,54.8,46.3,30.29,North,360,3.0,4.0,73,0.00,,,0.00,Wunderground v.1.15,2013-05-03 06:48:00,
2013-05-03 02:54:00,54.6,46.5,30.29,North,360,3.0,4.0,74,0.00,,,0.00,Wunderground v.1.15,2013-05-03 06:54:00,
2013-05-03 02:56:00,54.5,46.4,30.29,North,360,4.0,4.0,74,0.00,,,0.00,Wunderground v.1.15,2013-05-03 06:56:00,
2013-05-03 02:57:00,54.4,46.3,30.29,North,360,3.0,4.0,74,0.00,,,0.00,Wunderground v.1.15,2013-05-03 06:57:00,
2013-05-03 03:00:00,54.3,46.5,30.29,North,360,4.0,4.0,75,0.00,,,0.00,Wunderground v.1.15,2013-05-03 07:00:00,
2013-05-03 03:04:00,54.0,46.3,30.29,North,360,4.0,5.0,75,0.00,,,0.00,Wunderground v.1.15,2013-05-03 07:04:00,
2013-05-03 03:06:00,53.8,46.1,30.29,North,360,4.0,7.0,75,0.00,,,0.00,Wunderground v.1.15,2013-05-03 07:06:00,
2013-05-03 03:10:00,53.3,45.9,30.29,North,360,5.0,5.0,76,0.00,,,0.00,Wunderground v.1.15,2013-05-03 07:10:00,
2013-05-03 03:12:00,53.1,45.7,30.29,North,360,6.0,6.0,76,0.00,,,0.00,Wunderground v.1.15,2013-05-03 07:12:00,
2013-05-03 03:16:00,52.9,45.5,30.29,North,360,6.0,6.0,76,0.00,,,0.00,Wunderground v.1.15,2013-05-03 07:16:00,
2013-05-03 03:18:00,52.8,45.8,30.29,North,360,5.0,6.0,77,0.00,,,0.00,Wunderground v.1.15,2013-05-03 07:18:00,
2013-05-03 03:20:00,52.7,45.7,30.29,North,360,5.0,6.0,77,0.00,,,0.00,Wunderground v.1.15,2013-05-03 07:20:00,
2013-05-03 03:22:00,52.6,45.6,30.29,North,360,5.0,6.0,77,0.00,,,0.00,Wunderground v.1.15,2013-05-03 07:22:00,
2013-05-03 03:26:00,52.4,45.7,30.29,North,360,6.0,6.0,78,0.00,,,0.00,Wunderground v.1.15,2013-05-03 07:26:00,
2013-05-03 03:28:00,52.4,45.7,30.29,North,360,6.0,6.0,78,0.00,,,0.00,Wunderground v.1.15,2013-05-03 07:28:00,
2013-05-03 03:32:00,52.4,45.7,30.29,North,360,6.0,6.0,78,0.00,,,0.00,Wunderground v.1.15,2013-05-03 07:32:00,
2013-05-03 03:36:00,52.3,46.0,30.29,North,360,5.0,6.0,79,0.00,,,0.00,Wunderground v.1.15,2013-05-03 07:36:00,
2013-05-03 03:38:00,52.3,46.0,30.29,North,360,5.0,6.0,79,0.00,,,0.00,Wunderground v.1.15,2013-05-03 07:38:00,
2013-05-03 03:44:00,52.4,46.1,30.29,North,360,4.0,5.0,79,0.00,,,0.00,Wunderground v.1.15,2013-05-03 07:44:00,
2013-05-03 03:48:00,52.4,46.1,30.30,North,360,4.0,5.0,79,0.00,,,0.00,Wunderground v.1.15,2013-05-03 07:48:00,
2013-05-03 03:50:00,52.4,46.4,30.30,North,360,3.0,4.0,80,0.00,,,0.00,Wunderground v.1.15,2013-05-03 07:50:00,
2013-05-03 03:52:00,52.4,46.1,30.30,North,360,3.0,4.0,79,0.00,,,0.00,Wunderground v.1.15,2013-05-03 07:52:00,
2013-05-03 03:54:00,52.3,46.0,30.30,North,360,3.0,4.0,79,0.00,,,0.00,Wunderground v.1.15,2013-05-03 07:54:00,
2013-05-03 03:56:00,52.2,45.9,30.30,North,360,3.0,4.0,79,0.00,,,0.00,Wunderground v.1.15,2013-05-03 07:56:00,
2013-05-03 04:00:00,52.0,45.7,30.30,North,360,3.0,3.0,79,0.00,,,0.00,Wunderground v.1.15,2013-05-03 08:00:00,
2013-05-03 04:02:00,51.9,45.9,30.30,North,360,2.0,3.0,80,0.00,,,0.00,Wunderground v.1.15,2013-05-03 08:02:00,
2013-05-03 04:06:00,51.8,45.8,30.30,North,360,2.0,3.0,80,0.00,,,0.00,Wunderground v.1.15,2013-05-03 08:06:00,
2013-05-03 04:08:00,51.7,45.7,30.30,North,360,2.0,3.0,80,0.00,,,0.00,Wunderground v.1.15,2013-05-03 08:08:00,
2013-05-03 04:12:00,51.5,45.5,30.30,North,360,2.0,4.0,80,0.00,,,0.00,Wunderground v.1.15,2013-05-03 08:12:00,
2013-05-03 04:14:00,51.5,45.9,30.30,North,360,3.0,4.0,81,0.00,,,0.00,Wunderground v.1.15,2013-05-03 08:14:00,
2013-05-03 04:16:00,51.5,45.9,30.30,North,360,3.0,4.0,81,0.00,,,0.00,Wunderground v.1.15,2013-05-03 08:16:00,
2013-05-03 04:18:00,51.4,45.8,30.30,North,360,3.0,4.0,81,0.00,,,0.00,Wunderground v.1.15,2013-05-03 08:18:00,
2013-05-03 04:22:00,51.2,45.9,30.30,North,360,3.0,4.0,82,0.00,,,0.00,Wunderground v.1.15,2013-05-03 08:22:00,
2013-05-03 04:24:00,51.1,45.8,30.30,North,360,3.0,4.0,82,0.00,,,0.00,Wunderground v.1.15,2013-05-03 08:24:00,
2013-05-03 04:30:00,50.5,45.2,30.30,North,360,4.0,5.0,82,0.00,,,0.00,Wunderground v.1.15,2013-05-03 08:30:00,
2013-05-03 04:32:00,50.4,45.4,30.30,North,360,4.0,5.0,83,0.00,,,0.00,Wunderground v.1.15,2013-05-03 08:32:00,
2013-05-03 04:34:00,50.3,45.3,30.30,North,360,4.0,5.0,83,0.00,,,0.00,Wunderground v.1.15,2013-05-03 08:34:00,
2013-05-03 04:38:00,50.3,45.3,30.30,North,360,4.0,5.0,83,0.00,,,0.00,Wunderground v.1.15,2013-05-03 08:38:00,
2013-05-03 04:40:00,50.2,45.2,30.30,North,360,3.0,3.0,83,0.00,,,0.00,Wunderground v.1.15,2013-05-03 08:40:00,
2013-05-03 04:42:00,50.1,45.5,30.30,North,360,3.0,3.0,84,0.00,,,0.00,Wunderground v.1.15,2013-05-03 08:42:00,
2013-05-03 04:46:00,50.1,45.5,30.30,North,360,4.0,4.0,84,0.00,,,0.00,Wunderground v.1.15,2013-05-03 08:46:00,
2013-05-03 04:52:00,50.1,45.5,30.30,North,360,4.0,4.0,84,0.00,,,0.00,Wunderground v.1.15,2013-05-03 08:52:00,
2013-05-03 04:54:00,50.1,45.5,30.30,North,360,4.0,4.0,84,0.00,,,0.00,Wunderground v.1.15,2013-05-03 08:54:00,
2013-05-03 04:56:00,50.1,45.5,30.31,North,360,4.0,4.0,84,0.00,,,0.00,Wunderground v.1.15,2013-05-03 08:56:00,
2013-05-03 05:00:00,50.1,45.5,30.31,North,360,4.0,4.0,84,0.00,,,0.00,Wunderground v.1.15,2013-05-03 09:00:00,
2013-05-03 05:02:00,50.1,45.5,30.31,North,360,4.0,4.0,84,0.00,,,0.00,Wunderground v.1.15,2013-05-03 09:02:00,
2013-05-03 05:08:00,50.2,45.6,30.31,North,360,4.0,4.0,84,0.00,,,0.00,Wunderground v.1.15,2013-05-03 09:08:00,
2013-05-03 05:10:00,50.2,45.6,30.31,North,360,4.0,4.0,84,0.00,,,0.00,Wunderground v.1.15,2013-05-03 09:10:00,
2013-05-03 05:12:00,50.3,45.6,30.32,North,360,3.0,4.0,84,0.00,,,0.00,Wunderground v.1.15,2013-05-03 09:12:00,
2013-05-03 05:14:00,50.3,45.6,30.32,North,360,3.0,4.0,84,0.00,,,0.00,Wunderground v.1.15,2013-05-03 09:14:00,
2013-05-03 05:18:00,50.3,45.6,30.32,North,360,3.0,4.0,84,0.00,,,0.00,Wunderground v.1.15,2013-05-03 09:18:00,
2013-05-03 05:20:00,50.3,45.6,30.32,North,360,4.0,4.0,84,0.00,,,0.00,Wunderground v.1.15,2013-05-03 09:20:00,
2013-05-03 05:24:00,50.3,45.6,30.32,North,360,3.0,4.0,84,0.00,,,0.00,Wunderground v.1.15,2013-05-03 09:24:00,
2013-05-03 05:26:00,50.3,45.6,30.32,North,360,3.0,4.0,84,0.00,,,0.00,Wunderground v.1.15,2013-05-03 09:26:00,
2013-05-03 05:30:00,50.4,45.7,30.32,North,360,3.0,4.0,84,0.00,,,0.00,Wunderground v.1.15,2013-05-03 09:30:00,
2013-05-03 05:32:00,50.3,45.6,30.32,North,360,3.0,4.0,84,0.00,,,0.00,Wunderground v.1.15,2013-05-03 09:32:00,
2013-05-03 05:36:00,50.3,45.6,30.32,North,360,4.0,4.0,84,0.00,,,0.00,Wunderground v.1.15,2013-05-03 09:36:00,
2013-05-03 05:42:00,50.3,45.6,30.32,North,360,3.0,4.0,84,0.00,,,0.00,Wunderground v.1.15,2013-05-03 09:42:00,
2013-05-03 05:44:00,50.3,45.6,30.32,North,360,3.0,4.0,84,0.00,,,0.00,Wunderground v.1.15,2013-05-03 09:44:00,
2013-05-03 05:50:00,50.5,45.8,30.32,North,360,3.0,3.0,84,0.00,,,0.00,Wunderground v.1.15,2013-05-03 09:50:00,
2013-05-03 05:54:00,50.5,45.8,30.33,North,360,3.0,3.0,84,0.00,,,0.00,Wunderground v.1.15,2013-05-03 09:54:00,
2013-05-03 05:56:00,50.5,45.8,30.33,North,360,3.0,3.0,84,0.00,,,0.00,Wunderground v.1.15,2013-05-03 09:56:00,
2013-05-03 06:02:00,50.6,45.9,30.33,North,360,3.0,4.0,84,0.00,,,0.00,Wunderground v.1.15,2013-05-03 10:02:00,
2013-05-03 06:04:00,50.6,45.6,30.33,North,360,3.0,4.0,83,0.00,,,0.00,Wunderground v.1.15,2013-05-03 10:04:00,
2013-05-03 06:06:00,50.6,45.9,30.33,North,360,3.0,4.0,84,0.00,,,0.00,Wunderground v.1.15,2013-05-03 10:06:00,
2013-05-03 06:10:00,50.6,45.9,30.33,North,360,3.0,3.0,84,0.00,,,0.00,Wunderground v.1.15,2013-05-03 10:10:00,
2013-05-03 06:12:00,50.6,45.9,30.34,North,360,3.0,4.0,84,0.00,,,0.00,Wunderground v.1.15,2013-05-03 10:12:00,
2013-05-03 06:16:00,50.6,45.9,30.34,North,360,3.0,4.0,84,0.00,,,0.00,Wunderground v.1.15,2013-05-03 10:16:00,
2013-05-03 06:18:00,50.6,45.9,30.34,North,360,3.0,4.0,84,0.00,,,0.00,Wunderground v.1.15,2013-05-03 10:18:00,
2013-05-03 06:22:00,50.6,45.9,30.34,North,360,3.0,6.0,84,0.00,,,0.00,Wunderground v.1.15,2013-05-03 10:22:00,
2013-05-03 06:26:00,50.5,45.8,30.34,North,360,3.0,6.0,84,0.00,,,0.00,Wunderground v.1.15,2013-05-03 10:26:00,
2013-05-03 06:28:00,50.5,45.8,30.34,North,360,4.0,6.0,84,0.00,,,0.00,Wunderground v.1.15,2013-05-03 10:28:00,
2013-05-03 06:32:00,50.6,45.9,30.34,North,360,3.0,4.0,84,0.00,,,0.00,Wunderground v.1.15,2013-05-03 10:32:00,
2013-05-03 06:34:00,50.7,46.0,30.34,North,360,3.0,4.0,84,0.00,,,0.00,Wunderground v.1.15,2013-05-03 10:34:00,
2013-05-03 06:40:00,50.7,46.0,30.34,North,360,3.0,4.0,84,0.00,,,0.00,Wunderground v.1.15,2013-05-03 10:40:00,
2013-05-03 06:42:00,50.6,45.9,30.34,North,360,4.0,4.0,84,0.00,,,0.00,Wunderground v.1.15,2013-05-03 10:42:00,
2013-05-03 06:46:00,50.6,45.9,30.34,North,360,4.0,7.0,84,0.00,,,0.00,Wunderground v.1.15,2013-05-03 10:46:00,
2013-05-03 06:50:00,50.5,45.8,30.35,North,360,5.0,9.0,84,0.00,,,0.00,Wunderground v.1.15,2013-05-03 10:50:00,
2013-05-03 06:52:00,50.5,46.2,30.35,North,360,5.0,9.0,85,0.00,,,0.00,Wunderground v.1.15,2013-05-03 10:52:00,
2013-05-03 06:56:00,50.6,45.9,30.34,North,360,5.0,9.0,84,0.00,,,0.00,Wunderground v.1.15,2013-05-03 10:56:00,
2013-05-03 06:58:00,50.6,45.9,30.35,North,360,6.0,9.0,84,0.00,,,0.00,Wunderground v.1.15,2013-05-03 10:58:00,
2013-05-03 07:02:00,50.4,45.7,30.35,North,360,6.0,6.0,84,0.00,,,0.00,Wunderground v.1.15,2013-05-03 11:02:00,
2013-05-03 07:04:00,50.4,46.1,30.35,North,360,6.0,6.0,85,0.00,,,0.00,Wunderground v.1.15,2013-05-03 11:04:00,
2013-05-03 07:08:00,50.6,46.3,30.35,North,360,6.0,7.0,85,0.00,,,0.00,Wunderground v.1.15,2013-05-03 11:08:00,
2013-05-03 07:12:00,50.7,46.4,30.35,North,360,7.0,9.0,85,0.00,,,0.00,Wunderground v.1.15,2013-05-03 11:12:00,
2013-05-03 07:14:00,50.8,46.5,30.35,North,360,7.0,9.0,85,0.00,,,0.00,Wunderground v.1.15,2013-05-03 11:14:00,
2013-05-03 07:16:00,50.9,46.6,30.35,North,360,7.0,9.0,85,0.00,,,0.00,Wunderground v.1.15,2013-05-03 11:16:00,
2013-05-03 07:18:00,51.1,46.7,30.35,North,360,8.0,9.0,85,0.00,,,0.00,Wunderground v.1.15,2013-05-03 11:18:00,
2013-05-03 07:22:00,51.3,46.6,30.35,North,360,7.0,9.0,84,0.00,,,0.00,Wunderground v.1.15,2013-05-03 11:22:00,
2013-05-03 07:24:00,51.4,46.7,30.35,North,360,7.0,9.0,84,0.00,,,0.00,Wunderground v.1.15,2013-05-03 11:24:00,
2013-05-03 07:28:00,51.7,47.0,30.35,North,360,7.0,9.0,84,0.00,,,0.00,Wunderground v.1.15,2013-05-03 11:28:00,
2013-05-03 07:30:00,51.8,47.1,30.35,North,360,7.0,10.0,84,0.00,,,0.00,Wunderground v.1.15,2013-05-03 11:30:00,
2013-05-03 07:34:00,51.9,47.2,30.35,North,360,7.0,10.0,84,0.00,,,0.00,Wunderground v.1.15,2013-05-03 11:34:00,
2013-05-03 07:36:00,52.1,47.4,30.35,North,360,7.0,10.0,84,0.00,,,0.00,Wunderground v.1.15,2013-05-03 11:36:00,
2013-05-03 07:40:00,52.3,47.3,30.35,North,360,7.0,10.0,83,0.00,,,0.00,Wunderground v.1.15,2013-05-03 11:40:00,
2013-05-03 07:46:00,52.4,47.4,30.35,North,360,8.0,10.0,83,0.00,,,0.00,Wunderground v.1.15,2013-05-03 11:46:00,
2013-05-03 07:50:00,52.4,47.4,30.35,North,360,8.0,8.0,83,0.00,,,0.00,Wunderground v.1.15,2013-05-03 11:50:00,
2013-05-03 07:54:00,52.5,47.5,30.35,North,360,8.0,12.0,83,0.00,,,0.00,Wunderground v.1.15,2013-05-03 11:54:00,
2013-05-03 07:56:00,52.5,47.2,30.35,North,360,9.0,12.0,82,0.00,,,0.00,Wunderground v.1.15,2013-05-03 11:56:00,
2013-05-03 07:58:00,52.5,47.5,30.35,North,360,9.0,12.0,83,0.00,,,0.00,Wunderground v.1.15,2013-05-03 11:58:00,
2013-05-03 08:00:00,52.6,47.6,30.35,North,360,9.0,9.0,83,0.00,,,0.00,Wunderground v.1.15,2013-05-03 12:00:00,
2013-05-03 08:04:00,53.2,48.2,30.35,North,360,7.0,10.0,83,0.00,,,0.00,Wunderground v.1.15,2013-05-03 12:04:00,
2013-05-03 08:06:00,53.4,48.0,30.35,North,360,7.0,10.0,82,0.00,,,0.00,Wunderground v.1.15,2013-05-03 12:06:00,
2013-05-03 08:08:00,53.5,47.8,30.35,North,360,7.0,13.0,81,0.00,,,0.00,Wunderground v.1.15,2013-05-03 12:08:00,
2013-05-03 08:14:00,53.6,47.2,30.35,North,360,10.0,10.0,79,0.00,,,0.00,Wunderground v.1.15,2013-05-03 12:14:00,
2013-05-03 08:16:00,53.7,47.7,30.35,North,360,9.0,10.0,80,0.00,,,0.00,Wunderground v.1.15,2013-05-03 12:16:00,
2013-05-03 08:18:00,53.9,47.9,30.35,North,360,9.0,10.0,80,0.00,,,0.00,Wunderground v.1.15,2013-05-03 12:18:00,
2013-05-03 08:20:00,54.1,47.7,30.35,North,360,8.0,8.0,79,0.00,,,0.00,Wunderground v.1.15,2013-05-03 12:20:00,
2013-05-03 08:24:00,54.4,47.7,30.35,North,360,7.0,13.0,78,0.00,,,0.00,Wunderground v.1.15,2013-05-03 12:24:00,
2013-05-03 08:26:00,54.3,47.2,30.35,North,360,8.0,13.0,77,0.00,,,0.00,Wunderground v.1.15,2013-05-03 12:26:00,
2013-05-03 08:30:00,54.5,47.1,30.35,North,360,9.0,9.0,76,0.00,,,0.00,Wunderground v.1.15,2013-05-03 12:30:00,
2013-05-03 08:36:00,55.0,47.2,30.35,North,360,9.0,10.0,75,0.00,,,0.00,Wunderground v.1.15,2013-05-03 12:36:00,
2013-05-03 08:38:00,55.1,47.0,30.35,North,360,9.0,11.0,74,0.00,,,0.00,Wunderground v.1.15,2013-05-03 12:38:00,
2013-05-03 08:44:00,55.7,46.8,30.35,North,360,8.0,9.0,72,0.00,,,0.00,Wunderground v.1.15,2013-05-03 12:44:00,
2013-05-03 08:46:00,55.9,47.0,30.35,North,360,8.0,9.0,72,0.00,,,0.00,Wunderground v.1.15,2013-05-03 12:46:00,
2013-05-03 08:48:00,56.2,46.9,30.35,North,360,7.0,9.0,71,0.00,,,0.00,Wunderground v.1.15,2013-05-03 12:48:00,
2013-05-03 08:50:00,56.3,46.3,30.35,North,360,7.0,7.0,69,0.00,,,0.00,Wunderground v.1.15,2013-05-03 12:50:00,
2013-05-03 08:56:00,56.3,45.9,30.36,North,360,8.0,11.0,68,0.00,,,0.00,Wunderground v.1.15,2013-05-03 12:56:00,
2013-05-03 08:58:00,56.3,45.9,30.36,North,360,9.0,12.0,68,0.00,,,0.00,Wunderground v.1.15,2013-05-03 12:58:00,
2013-05-03 09:00:00,56.3,45.9,30.36,North,360,9.0,10.0,68,0.00,,,0.00,Wunderground v.1.15,2013-05-03 13:00:00,
2013-05-03 09:02:00,56.5,46.1,30.36,North,360,9.0,11.0,68,0.00,,,0.00,Wunderground v.1.15,2013-05-03 13:02:00,
2013-05-03 09:06:00,56.8,46.0,30.36,North,360,9.0,13.0,67,0.00,,,0.00,Wunderground v.1.15,2013-05-03 13:06:00,
2013-05-03 09:08:00,56.9,45.7,30.36,North,360,10.0,13.0,66,0.00,,,0.00,Wunderground v.1.15,2013-05-03 13:08:00,
2013-05-03 09:10:00,56.8,45.6,30.36,North,360,11.0,11.0,66,0.00,,,0.00,Wunderground v.1.15,2013-05-03 13:10:00,
2013-05-03 09:12:00,56.8,45.6,30.36,North,360,11.0,11.0,66,0.00,,,0.00,Wunderground v.1.15,2013-05-03 13:12:00,
2013-05-03 09:18:00,57.1,45.4,30.36,North,360,12.0,14.0,65,0.00,,,0.00,Wunderground v.1.15,2013-05-03 13:18:00,
2013-05-03 09:20:00,57.2,45.5,30.36,North,360,11.0,11.0,65,0.00,,,0.00,Wunderground v.1.15,2013-05-03 13:20:00,
2013-05-03 09:22:00,57.5,45.8,30.36,North,360,11.0,18.0,65,0.00,,,0.00,Wunderground v.1.15,2013-05-03 13:22:00,
2013-05-03 09:24:00,57.5,45.4,30.36,North,360,11.0,18.0,64,0.00,,,0.00,Wunderground v.1.15,2013-05-03 13:24:00,
2013-05-03 09:26:00,57.7,46.0,30.36,North,360,10.0,18.0,65,0.00,,,0.00,Wunderground v.1.15,2013-05-03 13:26:00,
2013-05-03 09:28:00,58.0,45.9,30.36,North,360,10.0,18.0,64,0.00,,,0.00,Wunderground v.1.15,2013-05-03 13:28:00,
2013-05-03 09:32:00,57.7,45.6,30.36,North,360,11.0,14.0,64,0.00,,,0.00,Wunderground v.1.15,2013-05-03 13:32:00,
2013-05-03 09:34:00,57.7,45.6,30.36,North,360,12.0,14.0,64,0.00,,,0.00,Wunderground v.1.15,2013-05-03 13:34:00,
2013-05-03 09:38:00,57.8,45.7,30.36,North,360,13.0,14.0,64,0.00,,,0.00,Wunderground v.1.15,2013-05-03 13:38:00,
2013-05-03 09:40:00,58.0,45.9,30.36,North,360,12.0,16.0,64,0.00,,,0.00,Wunderground v.1.15,2013-05-03 13:40:00,
2013-05-03 09:44:00,57.9,45.8,30.36,North,360,11.0,16.0,64,0.00,,,0.00,Wunderground v.1.15,2013-05-03 13:44:00,
2013-05-03 09:46:00,58.1,46.0,30.36,North,360,11.0,16.0,64,0.00,,,0.00,Wunderground v.1.15,2013-05-03 13:46:00,
2013-05-03 09:48:00,58.4,45.8,30.36,North,360,10.0,16.0,63,0.00,,,0.00,Wunderground v.1.15,2013-05-03 13:48:00,
2013-05-03 09:54:00,58.6,46.0,30.36,North,360,10.0,13.0,63,0.00,,,0.00,Wunderground v.1.15,2013-05-03 13:54:00,
2013-05-03 09:56:00,58.7,46.1,30.36,North,360,11.0,13.0,63,0.00,,,0.00,Wunderground v.1.15,2013-05-03 13:56:00,
2013-05-03 09:58:00,58.9,45.9,30.36,North,360,11.0,13.0,62,0.00,,,0.00,Wunderground v.1.15,2013-05-03 13:58:00,
2013-05-03 10:04:00,59.3,45.4,30.36,North,360,11.0,13.0,60,0.00,,,0.00,Wunderground v.1.15,2013-05-03 14:04:00,
2013-05-03 10:06:00,59.6,45.7,30.36,North,360,11.0,13.0,60,0.00,,,0.00,Wunderground v.1.15,2013-05-03 14:06:00,
2013-05-03 10:10:00,59.6,45.2,30.37,North,360,12.0,15.0,59,0.00,,,0.00,Wunderground v.1.15,2013-05-03 14:10:00,
2013-05-03 10:14:00,59.1,44.3,30.37,North,360,13.0,18.0,58,0.00,,,0.00,Wunderground v.1.15,2013-05-03 14:14:00,
2013-05-03 10:16:00,59.1,44.8,30.37,North,360,14.0,18.0,59,0.00,,,0.00,Wunderground v.1.15,2013-05-03 14:16:00,
2013-05-03 10:18:00,59.2,44.9,30.37,North,360,15.0,18.0,59,0.00,,,0.00,Wunderground v.1.15,2013-05-03 14:18:00,
2013-05-03 10:22:00,59.4,44.6,30.37,North,360,14.0,15.0,58,0.00,,,0.00,Wunderground v.1.15,2013-05-03 14:22:00,
2013-05-03 10:24:00,59.7,45.3,30.37,North,360,12.0,15.0,59,0.00,,,0.00,Wunderground v.1.15,2013-05-03 14:24:00,
2013-05-03 10:26:00,60.2,45.4,30.37,North,360,11.0,15.0,58,0.00,,,0.00,Wunderground v.1.15,2013-05-03 14:26:00,
2013-05-03 10:28:00,60.3,45.0,30.37,North,360,11.0,15.0,57,0.00,,,0.00,Wunderground v.1.15,2013-05-03 14:28:00,
2013-05-03 10:30:00,60.1,44.8,30.37,North,360,10.0,11.0,57,0.00,,,0.00,Wunderground v.1.15,2013-05-03 14:30:00,
2013-05-03 10:32:00,59.9,45.1,30.37,North,360,10.0,11.0,58,0.00,,,0.00,Wunderground v.1.15,2013-05-03 14:32:00,
2013-05-03 10:34:00,59.9,45.1,30.37,North,360,10.0,11.0,58,0.00,,,0.00,Wunderground v.1.15,2013-05-03 14:34:00,
2013-05-03 10:38:00,60.2,44.9,30.37,North,360,10.0,13.0,57,0.00,,,0.00,Wunderground v.1.15,2013-05-03 14:38:00,
2013-05-03 10:42:00,60.4,45.1,30.37,North,360,10.0,14.0,57,0.00,,,0.00,Wunderground v.1.15,2013-05-03 14:42:00,
2013-05-03 10:44:00,60.5,45.2,30.37,North,360,10.0,14.0,57,0.00,,,0.00,Wunderground v.1.15,2013-05-03 14:44:00,
2013-05-03 10:46:00,60.7,45.4,30.37,North,360,10.0,14.0,57,0.00,,,0.00,Wunderground v.1.15,2013-05-03 14:46:00,
2013-05-03 10:48:00,61.0,45.2,30.37,North,360,10.0,14.0,56,0.00,,,0.00,Wunderground v.1.15,2013-05-03 14:48:00,
2013-05-03 10:54:00,61.4,44.6,30.37,North,360,10.0,10.0,54,0.00,,,0.00,Wunderground v.1.15,2013-05-03 14:54:00,
2013-05-03 10:56:00,61.4,44.6,30.37,North,360,10.0,10.0,54,0.00,,,0.00,Wunderground v.1.15,2013-05-03 14:56:00,
2013-05-03 11:00:00,61.6,43.8,30.37,North,360,10.0,17.0,52,0.00,,,0.00,Wunderground v.1.15,2013-05-03 15:00:00,
2013-05-03 11:02:00,61.0,43.7,30.37,North,360,11.0,17.0,53,0.00,,,0.00,Wunderground v.1.15,2013-05-03 15:02:00,
2013-05-03 11:04:00,60.9,43.6,30.37,North,360,12.0,17.0,53,0.00,,,0.00,Wunderground v.1.15,2013-05-03 15:04:00,
2013-05-03 11:08:00,61.1,43.8,30.37,North,360,13.0,17.0,53,0.00,,,0.00,Wunderground v.1.15,2013-05-03 15:08:00,
2013-05-03 11:10:00,60.9,43.6,30.37,North,360,13.0,13.0,53,0.00,,,0.00,Wunderground v.1.15,2013-05-03 15:10:00,
2013-05-03 11:12:00,60.8,43.6,30.37,North,360,12.0,14.0,53,0.00,,,0.00,Wunderground v.1.15,2013-05-03 15:12:00,
2013-05-03 11:14:00,60.6,43.9,30.37,North,360,12.0,14.0,54,0.00,,,0.00,Wunderground v.1.15,2013-05-03 15:14:00,
2013-05-03 11:16:00,60.9,44.6,30.37,North,360,12.0,17.0,55,0.00,,,0.00,Wunderground v.1.15,2013-05-03 15:16:00,
2013-05-03 11:20:00,61.2,43.9,30.37,North,360,13.0,13.0,53,0.00,,,0.00,Wunderground v.1.15,2013-05-03 15:20:00,
2013-05-03 11:22:00,61.3,44.0,30.37,North,360,12.0,13.0,53,0.00,,,0.00,Wunderground v.1.15,2013-05-03 15:22:00,
2013-05-03 11:24:00,61.2,43.9,30.37,North,360,13.0,13.0,53,0.00,,,0.00,Wunderground v.1.15,2013-05-03 15:24:00,
2013-05-03 11:26:00,61.2,43.9,30.37,North,360,13.0,15.0,53,0.00,,,0.00,Wunderground v.1.15,2013-05-03 15:26:00,
2013-05-03 11:32:00,61.4,44.6,30.37,North,360,12.0,12.0,54,0.00,,,0.00,Wunderground v.1.15,2013-05-03 15:32:00,
2013-05-03 11:34:00,61.6,44.8,30.37,North,360,11.0,12.0,54,0.00,,,0.00,Wunderground v.1.15,2013-05-03 15:34:00,
2013-05-03 11:38:00,62.3,44.9,30.37,North,360,9.0,12.0,53,0.00,,,0.00,Wunderground v.1.15,2013-05-03 15:38:00,
2013-05-03 11:40:00,62.1,44.3,30.37,North,360,9.0,10.0,52,0.00,,,0.00,Wunderground v.1.15,2013-05-03 15:40:00,
2013-05-03 11:46:00,62.0,44.7,30.37,North,360,11.0,13.0,53,0.00,,,0.00,Wunderground v.1.15,2013-05-03 15:46:00,
2013-05-03 11:48:00,61.9,44.6,30.36,North,360,10.0,13.0,53,0.00,,,0.00,Wunderground v.1.15,2013-05-03 15:48:00,
2013-05-03 11:50:00,62.0,44.7,30.36,North,360,10.0,10.0,53,0.00,,,0.00,Wunderground v.1.15,2013-05-03 15:50:00,
2013-05-03 11:52:00,62.3,44.4,30.36,North,360,9.0,13.0,52,0.00,,,0.00,Wunderground v.1.15,2013-05-03 15:52:00,
2013-05-03 11:56:00,62.5,44.6,30.36,North,360,9.0,13.0,52,0.00,,,0.00,Wunderground v.1.15,2013-05-03 15:56:00,
2013-05-03 11:58:00,62.7,45.3,30.36,North,360,9.0,13.0,53,0.00,,,0.00,Wunderground v.1.15,2013-05-03 15:58:00,
2013-05-03 12:00:00,62.6,45.2,30.36,North,360,9.0,9.0,53,0.00,,,0.00,Wunderground v.1.15,2013-05-03 16:00:00,
2013-05-03 12:02:00,62.6,45.2,30.36,North,360,9.0,13.0,53,0.00,,,0.00,Wunderground v.1.15,2013-05-03 16:02:00,
2013-05-03 12:04:00,62.9,45.5,30.36,North,360,9.0,13.0,53,0.00,,,0.00,Wunderground v.1.15,2013-05-03 16:04:00,
2013-05-03 12:06:00,63.2,45.8,30.36,North,360,8.0,13.0,53,0.00,,,0.00,Wunderground v.1.15,2013-05-03 16:06:00,
2013-05-03 12:10:00,63.5,45.0,30.36,North,360,9.0,9.0,51,0.00,,,0.00,Wunderground v.1.15,2013-05-03 16:10:00,
2013-05-03 12:11:00,63.5,45.0,30.36,North,360,9.0,14.0,51,0.00,,,0.00,Wunderground v.1.15,2013-05-03 16:11:00,
2013-05-03 12:14:00,63.1,44.7,30.35,North,360,9.0,14.0,51,0.00,,,0.00,Wunderground v.1.15,2013-05-03 16:14:00,
2013-05-03 12:16:00,63.0,45.1,30.35,North,360,10.0,14.0,52,0.00,,,0.00,Wunderground v.1.15,2013-05-03 16:16:00,
2013-05-03 12:18:00,63.3,45.4,30.35,North,360,10.0,14.0,52,0.00,,,0.00,Wunderground v.1.15,2013-05-03 16:18:00,
2013-05-03 12:22:00,63.1,44.7,30.35,North,360,11.0,11.0,51,0.00,,,0.00,Wunderground v.1.15,2013-05-03 16:22:00,
2013-05-03 12:26:00,63.0,45.1,30.35,North,360,11.0,13.0,52,0.00,,,0.00,Wunderground v.1.15,2013-05-03 16:26:00,
2013-05-03 12:30:00,62.9,45.0,30.35,North,360,11.0,12.0,52,0.00,,,0.00,Wunderground v.1.15,2013-05-03 16:30:00,
2013-05-03 12:32:00,62.9,45.0,30.35,North,360,10.0,12.0,52,0.00,,,0.00,Wunderground v.1.15,2013-05-03 16:32:00,
2013-05-03 12:34:00,63.1,45.7,30.35,North,360,10.0,12.0,53,0.00,,,0.00,Wunderground v.1.15,2013-05-03 16:34:00,
2013-05-03 12:36:00,63.6,45.6,30.35,North,360,9.0,12.0,52,0.00,,,0.00,Wunderground v.1.15,2013-05-03 16:36:00,
2013-05-03 12:38:00,63.8,44.8,30.34,North,360,9.0,12.0,50,0.00,,,0.00,Wunderground v.1.15,2013-05-03 16:38:00,
2013-05-03 12:40:00,63.9,44.9,30.34,North,360,9.0,9.0,50,0.00,,,0.00,Wunderground v.1.15,2013-05-03 16:40:00,
2013-05-03 12:42:00,64.0,44.4,30.34,North,360,9.0,11.0,49,0.00,,,0.00,Wunderground v.1.15,2013-05-03 16:42:00,
2013-05-03 12:46:00,64.0,43.9,30.34,North,360,10.0,13.0,48,0.00,,,0.00,Wunderground v.1.15,2013-05-03 16:46:00,
2013-05-03 12:48:00,63.9,43.8,30.34,North,360,11.0,13.0,48,0.00,,,0.00,Wunderground v.1.15,2013-05-03 16:48:00,
2013-05-03 12:50:00,63.9,44.4,30.34,North,360,11.0,11.0,49,0.00,,,0.00,Wunderground v.1.15,2013-05-03 16:50:00,
2013-05-03 12:52:00,64.1,44.5,30.34,North,360,11.0,12.0,49,0.00,,,0.00,Wunderground v.1.15,2013-05-03 16:52:00,
2013-05-03 12:56:00,63.8,44.3,30.34,North,360,10.0,12.0,49,0.00,,,0.00,Wunderground v.1.15,2013-05-03 16:56:00,
2013-05-03 13:00:00,64.2,43.0,30.33,North,360,11.0,11.0,46,0.00,,,0.00,Wunderground v.1.15,2013-05-03 17:00:00,
2013-05-03 13:04:00,64.3,41.9,30.33,North,360,11.0,13.0,44,0.00,,,0.00,Wunderground v.1.15,2013-05-03 17:04:00,
2013-05-03 13:06:00,64.4,42.0,30.33,North,360,11.0,15.0,44,0.00,,,0.00,Wunderground v.1.15,2013-05-03 17:06:00,
2013-05-03 13:08:00,64.2,40.6,30.33,North,360,11.0,17.0,42,0.00,,,0.00,Wunderground v.1.15,2013-05-03 17:08:00,
2013-05-03 13:10:00,64.0,41.0,30.33,North,360,11.0,12.0,43,0.00,,,0.00,Wunderground v.1.15,2013-05-03 17:10:00,
2013-05-03 13:14:00,64.8,42.4,30.33,North,360,11.0,12.0,44,0.00,,,0.00,Wunderground v.1.15,2013-05-03 17:14:00,
2013-05-03 13:16:00,65.0,43.1,30.33,North,360,11.0,15.0,45,0.00,,,0.00,Wunderground v.1.15,2013-05-03 17:16:00,
2013-05-03 13:20:00,64.8,42.9,30.33,North,360,9.0,9.0,45,0.00,,,0.00,Wunderground v.1.15,2013-05-03 17:20:00,
2013-05-03 13:22:00,64.9,43.0,30.33,North,360,8.0,11.0,45,0.00,,,0.00,Wunderground v.1.15,2013-05-03 17:22:00,
2013-05-03 13:26:00,64.7,41.1,30.33,North,360,8.0,13.0,42,0.00,,,0.00,Wunderground v.1.15,2013-05-03 17:26:00,
2013-05-03 13:28:00,64.5,40.9,30.33,North,360,8.0,13.0,42,0.00,,,0.00,Wunderground v.1.15,2013-05-03 17:28:00,
2013-05-03 13:30:00,64.9,41.9,30.33,North,360,10.0,16.0,43,0.00,,,0.00,Wunderground v.1.15,2013-05-03 17:30:00,
2013-05-03 13:34:00,64.6,41.6,30.33,North,360,12.0,16.0,43,0.00,,,0.00,Wunderground v.1.15,2013-05-03 17:34:00,
2013-05-03 13:38:00,64.6,42.8,30.33,North,360,12.0,16.0,45,0.00,,,0.00,Wunderground v.1.15,2013-05-03 17:38:00,
2013-05-03 13:40:00,64.8,42.9,30.33,North,360,12.0,15.0,45,0.00,,,0.00,Wunderground v.1.15,2013-05-03 17:40:00,
2013-05-03 13:42:00,64.7,43.4,30.33,North,360,12.0,15.0,46,0.00,,,0.00,Wunderground v.1.15,2013-05-03 17:42:00,
2013-05-03 13:44:00,64.6,43.3,30.32,North,360,11.0,15.0,46,0.00,,,0.00,Wunderground v.1.15,2013-05-03 17:44:00,
2013-05-03 13:46:00,64.6,43.3,30.33,North,360,11.0,17.0,46,0.00,,,0.00,Wunderground v.1.15,2013-05-03 17:46:00,
2013-05-03 13:50:00,64.7,43.4,30.33,North,360,13.0,14.0,46,0.00,,,0.00,Wunderground v.1.15,2013-05-03 17:50:00,
2013-05-03 13:52:00,64.6,43.3,30.33,North,360,12.0,14.0,46,0.00,,,0.00,Wunderground v.1.15,2013-05-03 17:52:00,
2013-05-03 13:55:00,65.1,44.4,30.33,North,360,11.0,17.0,47,0.00,,,0.00,Wunderground v.1.15,2013-05-03 17:55:00,
2013-05-03 13:58:00,64.8,44.1,30.33,North,360,11.0,17.0,47,0.00,,,0.00,Wunderground v.1.15,2013-05-03 17:58:00,
2013-05-03 14:02:00,64.3,44.2,30.32,North,360,12.0,16.0,48,0.00,,,0.00,Wunderground v.1.15,2013-05-03 18:02:00,
2013-05-03 14:06:00,64.9,44.7,30.32,North,360,13.0,16.0,48,0.00,,,0.00,Wunderground v.1.15,2013-05-03 18:06:00,
2013-05-03 14:09:00,64.8,44.6,30.32,North,360,12.0,12.0,48,0.00,,,0.00,Wunderground v.1.15,2013-05-03 18:09:00,
2013-05-03 14:12:00,65.0,45.4,30.32,North,360,10.0,12.0,49,0.00,,,0.00,Wunderground v.1.15,2013-05-03 18:12:00,
2013-05-03 14:14:00,65.4,45.2,30.32,North,360,10.0,13.0,48,0.00,,,0.00,Wunderground v.1.15,2013-05-03 18:14:00,
2013-05-03 14:16:00,65.4,44.6,30.32,North,360,10.0,13.0,47,0.00,,,0.00,Wunderground v.1.15,2013-05-03 18:16:00,
2013-05-03 14:18:00,65.8,45.6,30.32,North,360,10.0,13.0,48,0.00,,,0.00,Wunderground v.1.15,2013-05-03 18:18:00,
2013-05-03 14:22:00,65.9,45.1,30.33,North,360,10.0,11.0,47,0.00,,,0.00,Wunderground v.1.15,2013-05-03 18:22:00,
2013-05-03 14:24:00,65.0,45.4,30.33,North,360,10.0,11.0,49,0.00,,,0.00,Wunderground v.1.15,2013-05-03 18:24:00,
2013-05-03 14:28:00,64.5,45.4,30.33,North,360,12.0,15.0,50,0.00,,,0.00,Wunderground v.1.15,2013-05-03 18:28:00,
2013-05-03 14:30:00,64.0,45.5,30.33,North,360,12.0,13.0,51,0.00,,,0.00,Wunderground v.1.15,2013-05-03 18:30:00,
2013-05-03 14:34:00,64.1,45.6,30.33,North,360,14.0,18.0,51,0.00,,,0.00,Wunderground v.1.15,2013-05-03 18:34:00,
2013-05-03 14:36:00,63.8,45.3,30.33,North,360,14.0,18.0,51,0.00,,,0.00,Wunderground v.1.15,2013-05-03 18:36:00,
2013-05-03 14:38:00,63.6,45.6,30.33,North,360,14.0,18.0,52,0.00,,,0.00,Wunderground v.1.15,2013-05-03 18:38:00,
2013-05-03 14:40:00,63.8,45.3,30.33,North,360,12.0,12.0,51,0.00,,,0.00,Wunderground v.1.15,2013-05-03 18:40:00,
2013-05-03 14:44:00,64.1,45.6,30.33,North,360,11.0,13.0,51,0.00,,,0.00,Wunderground v.1.15,2013-05-03 18:44:00,
2013-05-03 14:46:00,64.2,45.7,30.33,North,360,11.0,16.0,51,0.00,,,0.00,Wunderground v.1.15,2013-05-03 18:46:00,
2013-05-03 14:48:00,63.7,45.7,30.33,North,360,11.0,16.0,52,0.00,,,0.00,Wunderground v.1.15,2013-05-03 18:48:00,
2013-05-03 14:50:00,63.4,45.5,30.33,North,360,12.0,12.0,52,0.00,,,0.00,Wunderground v.1.15,2013-05-03 18:50:00,
2013-05-03 14:52:00,63.3,45.4,30.33,North,360,12.0,12.0,52,0.00,,,0.00,Wunderground v.1.15,2013-05-03 18:52:00,
2013-05-03 14:58:00,63.7,45.2,30.33,North,360,11.0,18.0,51,0.00,,,0.00,Wunderground v.1.15,2013-05-03 18:58:00,
2013-05-03 15:00:00,63.3,45.4,30.32,North,360,12.0,12.0,52,0.00,,,0.00,Wunderground v.1.15,2013-05-03 19:00:00,
2013-05-03 15:04:00,63.2,45.3,30.32,North,360,13.0,13.0,52,0.00,,,0.00,Wunderground v.1.15,2013-05-03 19:04:00,
2013-05-03 15:06:00,63.2,44.8,30.33,North,360,13.0,15.0,51,0.00,,,0.00,Wunderground v.1.15,2013-05-03 19:06:00,
2013-05-03 15:10:00,62.8,45.4,30.32,North,360,13.0,13.0,53,0.00,,,0.00,Wunderground v.1.15,2013-05-03 19:10:00,
2013-05-03 15:12:00,63.1,45.2,30.32,North,360,13.0,13.0,52,0.00,,,0.00,Wunderground v.1.15,2013-05-03 19:12:00,
2013-05-03 15:14:00,63.2,45.3,30.32,North,360,12.0,18.0,52,0.00,,,0.00,Wunderground v.1.15,2013-05-03 19:14:00,
2013-05-03 15:16:00,63.2,44.8,30.32,North,360,12.0,18.0,51,0.00,,,0.00,Wunderground v.1.15,2013-05-03 19:16:00,
2013-05-03 15:18:00,63.7,45.2,30.32,North,360,11.0,18.0,51,0.00,,,0.00,Wunderground v.1.15,2013-05-03 19:18:00,
2013-05-03 15:22:00,63.6,44.1,30.32,North,360,12.0,16.0,49,0.00,,,0.00,Wunderground v.1.15,2013-05-03 19:22:00,
2013-05-03 15:24:00,63.1,44.2,30.32,North,360,12.0,16.0,50,0.00,,,0.00,Wunderground v.1.15,2013-05-03 19:24:00,
2013-05-03 15:26:00,62.8,43.9,30.32,North,360,12.0,16.0,50,0.00,,,0.00,Wunderground v.1.15,2013-05-03 19:26:00,
2013-05-03 15:32:00,62.9,44.5,30.32,North,360,13.0,14.0,51,0.00,,,0.00,Wunderground v.1.15,2013-05-03 19:32:00,
2013-05-03 15:34:00,62.9,44.0,30.32,North,360,13.0,14.0,50,0.00,,,0.00,Wunderground v.1.15,2013-05-03 19:34:00,
2013-05-03 15:36:00,63.1,44.2,30.32,North,360,12.0,14.0,50,0.00,,,0.00,Wunderground v.1.15,2013-05-03 19:36:00,
2013-05-03 15:40:00,63.3,43.8,30.32,North,360,11.0,11.0,49,0.00,,,0.00,Wunderground v.1.15,2013-05-03 19:40:00,
2013-05-03 15:42:00,63.2,43.2,30.32,North,360,11.0,11.0,48,0.00,,,0.00,Wunderground v.1.15,2013-05-03 19:42:00,
2013-05-03 15:44:00,63.0,42.4,30.32,North,360,13.0,13.0,47,0.00,,,0.00,Wunderground v.1.15,2013-05-03 19:44:00,
2013-05-03 15:50:00,62.4,41.3,30.31,North,360,13.0,13.0,46,0.00,,,0.00,Wunderground v.1.15,2013-05-03 19:50:00,
2013-05-03 15:54:00,62.1,41.6,30.31,North,360,12.0,13.0,47,0.00,,,0.00,Wunderground v.1.15,2013-05-03 19:54:00,
2013-05-03 15:56:00,62.4,41.3,30.31,North,360,11.0,13.0,46,0.00,,,0.00,Wunderground v.1.15,2013-05-03 19:56:00,
2013-05-03 16:02:00,63.3,42.2,30.31,North,360,11.0,12.0,46,0.00,,,0.00,Wunderground v.1.15,2013-05-03 20:02:00,
2013-05-03 16:06:00,63.2,42.1,30.31,North,360,11.0,13.0,46,0.00,,,0.00,Wunderground v.1.15,2013-05-03 20:06:00,
2013-05-03 16:08:00,62.8,42.3,30.31,North,360,11.0,13.0,47,0.00,,,0.00,Wunderground v.1.15,2013-05-03 20:08:00,
2013-05-03 16:10:00,63.0,42.4,30.31,North,360,12.0,12.0,47,0.00,,,0.00,Wunderground v.1.15,2013-05-03 20:10:00,
2013-05-03 16:12:00,63.4,42.8,30.31,North,360,11.0,12.0,47,0.00,,,0.00,Wunderground v.1.15,2013-05-03 20:12:00,
2013-05-03 16:14:00,63.5,42.3,30.31,North,360,11.0,13.0,46,0.00,,,0.00,Wunderground v.1.15,2013-05-03 20:14:00,
2013-05-03 16:18:00,62.9,42.4,30.31,North,360,11.0,13.0,47,0.00,,,0.00,Wunderground v.1.15,2013-05-03 20:18:00,
2013-05-03 16:22:00,63.0,41.9,30.31,North,360,12.0,13.0,46,0.00,,,0.00,Wunderground v.1.15,2013-05-03 20:22:00,
2013-05-03 16:26:00,62.9,42.4,30.30,North,360,12.0,13.0,47,0.00,,,0.00,Wunderground v.1.15,2013-05-03 20:26:00,
2013-05-03 16:28:00,62.9,42.4,30.30,North,360,11.0,13.0,47,0.00,,,0.00,Wunderground v.1.15,2013-05-03 20:28:00,
2013-05-03 16:32:00,62.7,42.2,30.31,North,360,11.0,12.0,47,0.00,,,0.00,Wunderground v.1.15,2013-05-03 20:32:00,
2013-05-03 16:34:00,62.7,42.2,30.30,North,360,11.0,14.0,47,0.00,,,0.00,Wunderground v.1.15,2013-05-03 20:34:00,
2013-05-03 16:36:00,62.7,42.7,30.30,North,360,11.0,16.0,48,0.00,,,0.00,Wunderground v.1.15,2013-05-03 20:36:00,
2013-05-03 16:38:00,62.7,42.7,30.30,North,360,12.0,16.0,48,0.00,,,0.00,Wunderground v.1.15,2013-05-03 20:38:00,
2013-05-03 16:39:00,62.7,42.7,30.31,North,360,12.0,14.0,48,0.00,,,0.00,Wunderground v.1.15,2013-05-03 20:39:00,
2013-05-03 16:42:00,62.4,41.9,30.31,North,360,12.0,14.0,47,0.00,,,0.00,Wunderground v.1.15,2013-05-03 20:42:00,
2013-05-03 16:44:00,62.4,42.4,30.31,North,360,12.0,14.0,48,0.00,,,0.00,Wunderground v.1.15,2013-05-03 20:44:00,
2013-05-03 16:46:00,62.3,42.3,30.31,North,360,11.0,14.0,48,0.00,,,0.00,Wunderground v.1.15,2013-05-03 20:46:00,
2013-05-03 16:48:00,62.3,42.3,30.31,North,360,11.0,14.0,48,0.00,,,0.00,Wunderground v.1.15,2013-05-03 20:48:00,
2013-05-03 16:50:00,62.4,42.4,30.31,North,360,11.0,11.0,48,0.00,,,0.00,Wunderground v.1.15,2013-05-03 20:50:00,
2013-05-03 16:54:00,62.8,42.8,30.31,North,360,11.0,14.0,48,0.00,,,0.00,Wunderground v.1.15,2013-05-03 20:54:00,
2013-05-03 16:56:00,62.3,42.3,30.31,North,360,11.0,14.0,48,0.00,,,0.00,Wunderground v.1.15,2013-05-03 20:56:00,
2013-05-03 17:02:00,61.8,43.0,30.31,North,360,12.0,15.0,50,0.00,,,0.00,Wunderground v.1.15,2013-05-03 21:02:00,
2013-05-03 17:06:00,61.6,42.2,30.31,North,360,12.0,15.0,49,0.00,,,0.00,Wunderground v.1.15,2013-05-03 21:06:00,
2013-05-03 17:08:00,61.7,42.3,30.30,North,360,12.0,15.0,49,0.00,,,0.00,Wunderground v.1.15,2013-05-03 21:08:00,
2013-05-03 17:09:00,61.9,43.0,30.30,North,360,12.0,12.0,50,0.00,,,0.00,Wunderground v.1.15,2013-05-03 21:09:00,
2013-05-03 17:14:00,62.0,42.6,30.30,North,360,12.0,12.0,49,0.00,,,0.00,Wunderground v.1.15,2013-05-03 21:14:00,
2013-05-03 17:16:00,61.8,42.4,30.31,North,360,12.0,14.0,49,0.00,,,0.00,Wunderground v.1.15,2013-05-03 21:16:00,
2013-05-03 17:20:00,61.9,42.5,30.31,North,360,12.0,12.0,49,0.00,,,0.00,Wunderground v.1.15,2013-05-03 21:20:00,
2013-05-03 17:22:00,61.7,42.3,30.31,North,360,12.0,12.0,49,0.00,,,0.00,Wunderground v.1.15,2013-05-03 21:22:00,
2013-05-03 17:24:00,61.8,43.0,30.31,North,360,11.0,12.0,50,0.00,,,0.00,Wunderground v.1.15,2013-05-03 21:24:00,
2013-05-03 17:25:00,61.9,43.0,30.31,North,360,11.0,12.0,50,0.00,,,0.00,Wunderground v.1.15,2013-05-03 21:25:00,
2013-05-03 17:28:00,62.0,43.1,30.31,North,360,10.0,15.0,50,0.00,,,0.00,Wunderground v.1.15,2013-05-03 21:28:00,
2013-05-03 17:30:00,62.0,43.1,30.31,North,360,10.0,15.0,50,0.00,,,0.00,Wunderground v.1.15,2013-05-03 21:30:00,
2013-05-03 17:32:00,61.8,43.0,30.31,North,360,11.0,15.0,50,0.00,,,0.00,Wunderground v.1.15,2013-05-03 21:32:00,
2013-05-03 17:34:00,61.8,43.0,30.31,North,360,12.0,17.0,50,0.00,,,0.00,Wunderground v.1.15,2013-05-03 21:34:00,
2013-05-03 17:36:00,61.8,43.0,30.30,North,360,12.0,17.0,50,0.00,,,0.00,Wunderground v.1.15,2013-05-03 21:36:00,
2013-05-03 17:38:00,61.5,42.7,30.30,North,360,13.0,17.0,50,0.00,,,0.00,Wunderground v.1.15,2013-05-03 21:38:00,
2013-05-03 17:40:00,61.1,42.8,30.30,North,360,13.0,13.0,51,0.00,,,0.00,Wunderground v.1.15,2013-05-03 21:40:00,
2013-05-03 17:46:00,60.9,42.6,30.30,North,360,13.0,20.0,51,0.00,,,0.00,Wunderground v.1.15,2013-05-03 21:46:00,
2013-05-03 17:50:00,61.1,43.3,30.31,North,360,13.0,13.0,52,0.00,,,0.00,Wunderground v.1.15,2013-05-03 21:50:00,
2013-05-03 17:52:00,61.0,43.2,30.31,North,360,12.0,13.0,52,0.00,,,0.00,Wunderground v.1.15,2013-05-03 21:52:00,
2013-05-03 17:54:00,61.1,43.3,30.31,North,360,11.0,13.0,52,0.00,,,0.00,Wunderground v.1.15,2013-05-03 21:54:00,
2013-05-03 17:56:00,61.1,43.3,30.30,North,360,10.0,13.0,52,0.00,,,0.00,Wunderground v.1.15,2013-05-03 21:56:00,
2013-05-03 18:00:00,61.2,43.4,30.31,North,360,9.0,15.0,52,0.00,,,0.00,Wunderground v.1.15,2013-05-03 22:00:00,
2013-05-03 18:02:00,60.9,43.1,30.31,North,360,10.0,16.0,52,0.00,,,0.00,Wunderground v.1.15,2013-05-03 22:02:00,
2013-05-03 18:04:00,60.6,42.9,30.31,North,360,12.0,16.0,52,0.00,,,0.00,Wunderground v.1.15,2013-05-03 22:04:00,
2013-05-03 18:06:00,60.4,43.2,30.31,North,360,12.0,16.0,53,0.00,,,0.00,Wunderground v.1.15,2013-05-03 22:06:00,
2013-05-03 18:09:00,60.2,43.0,30.31,North,360,13.0,13.0,53,0.00,,,0.00,Wunderground v.1.15,2013-05-03 22:09:00,
2013-05-03 18:11:00,60.2,43.0,30.31,North,360,12.0,13.0,53,0.00,,,0.00,Wunderground v.1.15,2013-05-03 22:11:00,
2013-05-03 18:16:00,60.4,43.2,30.31,North,360,10.0,13.0,53,0.00,,,0.00,Wunderground v.1.15,2013-05-03 22:16:00,
2013-05-03 18:18:00,60.2,43.5,30.31,North,360,10.0,13.0,54,0.00,,,0.00,Wunderground v.1.15,2013-05-03 22:18:00,
2013-05-03 18:20:00,60.3,43.6,30.30,North,360,10.0,10.0,54,0.00,,,0.00,Wunderground v.1.15,2013-05-03 22:20:00,
2013-05-03 18:22:00,60.6,43.9,30.31,North,360,9.0,10.0,54,0.00,,,0.00,Wunderground v.1.15,2013-05-03 22:22:00,
2013-05-03 18:28:00,60.0,43.8,30.31,North,360,11.0,12.0,55,0.00,,,0.00,Wunderground v.1.15,2013-05-03 22:28:00,
2013-05-03 18:34:00,59.8,43.6,30.31,North,360,11.0,15.0,55,0.00,,,0.00,Wunderground v.1.15,2013-05-03 22:34:00,
2013-05-03 18:36:00,59.8,43.6,30.31,North,360,11.0,15.0,55,0.00,,,0.00,Wunderground v.1.15,2013-05-03 22:36:00,
2013-05-03 18:38:00,59.7,43.5,30.31,North,360,10.0,15.0,55,0.00,,,0.00,Wunderground v.1.15,2013-05-03 22:38:00,
2013-05-03 18:40:00,59.4,43.2,30.31,North,360,11.0,11.0,55,0.00,,,0.00,Wunderground v.1.15,2013-05-03 22:40:00,
2013-05-03 18:42:00,59.2,43.5,30.31,North,360,11.0,11.0,56,0.00,,,0.00,Wunderground v.1.15,2013-05-03 22:42:00,
2013-05-03 18:44:00,59.1,43.4,30.31,North,360,11.0,14.0,56,0.00,,,0.00,Wunderground v.1.15,2013-05-03 22:44:00,
2013-05-03 18:46:00,59.1,43.4,30.31,North,360,11.0,14.0,56,0.00,,,0.00,Wunderground v.1.15,2013-05-03 22:46:00,
2013-05-03 18:48:00,59.1,43.4,30.31,North,360,12.0,14.0,56,0.00,,,0.00,Wunderground v.1.15,2013-05-03 22:48:00,
2013-05-03 18:50:00,59.0,43.8,30.31,North,360,12.0,12.0,57,0.00,,,0.00,Wunderground v.1.15,2013-05-03 22:50:00,
2013-05-03 18:52:00,58.9,43.7,30.31,North,360,12.0,15.0,57,0.00,,,0.00,Wunderground v.1.15,2013-05-03 22:52:00,
2013-05-03 18:54:00,59.0,43.8,30.31,North,360,12.0,15.0,57,0.00,,,0.00,Wunderground v.1.15,2013-05-03 22:54:00,
2013-05-03 18:56:00,59.1,43.9,30.31,North,360,12.0,15.0,57,0.00,,,0.00,Wunderground v.1.15,2013-05-03 22:56:00,
2013-05-03 18:58:00,59.1,43.9,30.31,North,360,11.0,15.0,57,0.00,,,0.00,Wunderground v.1.15,2013-05-03 22:58:00,
2013-05-03 19:02:00,59.0,43.3,30.31,North,360,10.0,11.0,56,0.00,,,0.00,Wunderground v.1.15,2013-05-03 23:02:00,
2013-05-03 19:04:00,58.9,43.7,30.31,North,360,9.0,11.0,57,0.00,,,0.00,Wunderground v.1.15,2013-05-03 23:04:00,
2013-05-03 19:08:00,58.7,43.5,30.32,North,360,9.0,11.0,57,0.00,,,0.00,Wunderground v.1.15,2013-05-03 23:08:00,
2013-05-03 19:10:00,58.7,43.5,30.32,North,360,9.0,10.0,57,0.00,,,0.00,Wunderground v.1.15,2013-05-03 23:10:00,
2013-05-03 19:14:00,58.6,43.4,30.32,North,360,9.0,11.0,57,0.00,,,0.00,Wunderground v.1.15,2013-05-03 23:14:00,
2013-05-03 19:16:00,58.4,43.2,30.32,North,360,10.0,11.0,57,0.00,,,0.00,Wunderground v.1.15,2013-05-03 23:16:00,
2013-05-03 19:20:00,58.3,43.6,30.32,North,360,10.0,10.0,58,0.00,,,0.00,Wunderground v.1.15,2013-05-03 23:20:00,
2013-05-03 19:22:00,58.4,43.2,30.32,North,360,9.0,12.0,57,0.00,,,0.00,Wunderground v.1.15,2013-05-03 23:22:00,
2013-05-03 19:24:00,58.2,43.0,30.32,North,360,10.0,12.0,57,0.00,,,0.00,Wunderground v.1.15,2013-05-03 23:24:00,
2013-05-03 19:28:00,57.9,42.8,30.32,North,360,10.0,14.0,57,0.00,,,0.00,Wunderground v.1.15,2013-05-03 23:28:00,
2013-05-03 19:30:00,57.7,43.0,30.32,North,360,12.0,14.0,58,0.00,,,0.00,Wunderground v.1.15,2013-05-03 23:30:00,
2013-05-03 19:34:00,57.4,43.2,30.32,North,360,12.0,14.0,59,0.00,,,0.00,Wunderground v.1.15,2013-05-03 23:34:00,
2013-05-03 19:36:00,57.3,43.1,30.32,North,360,11.0,14.0,59,0.00,,,0.00,Wunderground v.1.15,2013-05-03 23:36:00,
2013-05-03 19:38:00,57.3,43.1,30.32,North,360,10.0,14.0,59,0.00,,,0.00,Wunderground v.1.15,2013-05-03 23:38:00,
2013-05-03 19:42:00,57.4,43.2,30.32,North,360,9.0,10.0,59,0.00,,,0.00,Wunderground v.1.15,2013-05-03 23:42:00,
2013-05-03 19:44:00,57.4,43.2,30.32,North,360,8.0,10.0,59,0.00,,,0.00,Wunderground v.1.15,2013-05-03 23:44:00,
2013-05-03 19:48:00,57.4,43.2,30.32,North,360,8.0,13.0,59,0.00,,,0.00,Wunderground v.1.15,2013-05-03 23:48:00,
2013-05-03 19:50:00,57.1,42.5,30.32,North,360,9.0,10.0,58,0.00,,,0.00,Wunderground v.1.15,2013-05-03 23:50:00,
2013-05-03 19:54:00,57.0,42.4,30.32,North,360,9.0,11.0,58,0.00,,,0.00,Wunderground v.1.15,2013-05-03 23:54:00,
2013-05-03 19:56:00,56.9,42.3,30.32,North,360,9.0,12.0,58,0.00,,,0.00,Wunderground v.1.15,2013-05-03 23:56:00,
2013-05-03 20:00:00,57.0,42.4,30.32,North,360,8.0,10.0,58,0.00,,,0.00,Wunderground v.1.15,2013-05-04 00:00:00,
2013-05-03 20:02:00,56.9,42.3,30.32,North,360,8.0,10.0,58,0.00,,,0.00,Wunderground v.1.15,2013-05-04 00:02:00,
2013-05-03 20:08:00,56.8,42.6,30.32,North,360,7.0,11.0,59,0.00,,,0.00,Wunderground v.1.15,2013-05-04 00:08:00,
2013-05-03 20:10:00,56.7,42.5,30.32,North,360,7.0,11.0,59,0.00,,,0.00,Wunderground v.1.15,2013-05-04 00:10:00,
2013-05-03 20:12:00,56.6,42.4,30.32,North,360,7.0,11.0,59,0.00,,,0.00,Wunderground v.1.15,2013-05-04 00:12:00,
2013-05-03 20:16:00,56.3,42.1,30.32,North,360,8.0,11.0,59,0.00,,,0.00,Wunderground v.1.15,2013-05-04 00:16:00,
2013-05-03 20:18:00,56.3,42.6,30.32,North,360,8.0,11.0,60,0.00,,,0.00,Wunderground v.1.15,2013-05-04 00:18:00,
2013-05-03 20:22:00,56.0,42.3,30.32,North,360,8.0,11.0,60,0.00,,,0.00,Wunderground v.1.15,2013-05-04 00:22:00,
2013-05-03 20:24:00,56.0,42.3,30.32,North,360,9.0,11.0,60,0.00,,,0.00,Wunderground v.1.15,2013-05-04 00:24:00,
2013-05-03 20:26:00,56.0,41.9,30.32,North,360,9.0,11.0,59,0.00,,,0.00,Wunderground v.1.15,2013-05-04 00:26:00,
2013-05-03 20:28:00,56.0,41.9,30.32,North,360,9.0,11.0,59,0.00,,,0.00,Wunderground v.1.15,2013-05-04 00:28:00,
2013-05-03 20:30:00,55.9,41.8,30.32,North,360,9.0,9.0,59,0.00,,,0.00,Wunderground v.1.15,2013-05-04 00:30:00,
2013-05-03 20:32:00,55.8,42.1,30.32,North,360,9.0,10.0,60,0.00,,,0.00,Wunderground v.1.15,2013-05-04 00:32:00,
2013-05-03 20:34:00,55.8,42.1,30.32,North,360,9.0,10.0,60,0.00,,,0.00,Wunderground v.1.15,2013-05-04 00:34:00,
2013-05-03 20:39:00,55.9,42.2,30.32,North,360,8.0,11.0,60,0.00,,,0.00,Wunderground v.1.15,2013-05-04 00:39:00,
2013-05-03 20:41:00,55.7,42.0,30.33,North,360,8.0,11.0,60,0.00,,,0.00,Wunderground v.1.15,2013-05-04 00:41:00,
2013-05-03 20:46:00,55.9,42.2,30.33,North,360,7.0,12.0,60,0.00,,,0.00,Wunderground v.1.15,2013-05-04 00:46:00,
2013-05-03 20:48:00,55.7,42.0,30.33,North,360,7.0,12.0,60,0.00,,,0.00,Wunderground v.1.15,2013-05-04 00:48:00,
2013-05-03 20:52:00,55.3,42.1,30.33,North,360,7.0,7.0,61,0.00,,,0.00,Wunderground v.1.15,2013-05-04 00:52:00,
2013-05-03 20:54:00,55.2,42.0,30.33,North,360,7.0,9.0,61,0.00,,,0.00,Wunderground v.1.15,2013-05-04 00:54:00,
2013-05-03 20:56:00,55.2,42.4,30.33,North,360,8.0,10.0,62,0.00,,,0.00,Wunderground v.1.15,2013-05-04 00:56:00,
2013-05-03 21:00:00,55.2,42.4,30.33,North,360,7.0,14.0,62,0.00,,,0.00,Wunderground v.1.15,2013-05-04 01:00:00,
2013-05-03 21:02:00,55.0,42.2,30.33,North,360,8.0,14.0,62,0.00,,,0.00,Wunderground v.1.15,2013-05-04 01:02:00,
2013-05-03 21:06:00,54.7,42.3,30.33,North,360,8.0,14.0,63,0.00,,,0.00,Wunderground v.1.15,2013-05-04 01:06:00,
2013-05-03 21:08:00,54.7,42.3,30.34,North,360,9.0,14.0,63,0.00,,,0.00,Wunderground v.1.15,2013-05-04 01:08:00,
2013-05-03 21:10:00,54.5,42.2,30.34,North,360,10.0,13.0,63,0.00,,,0.00,Wunderground v.1.15,2013-05-04 01:10:00,
2013-05-03 21:14:00,54.1,42.6,30.33,North,360,10.0,13.0,65,0.00,,,0.00,Wunderground v.1.15,2013-05-04 01:14:00,
2013-05-03 21:16:00,54.0,42.5,30.34,North,360,10.0,13.0,65,0.00,,,0.00,Wunderground v.1.15,2013-05-04 01:16:00,
2013-05-03 21:18:00,54.2,42.7,30.34,North,360,9.0,13.0,65,0.00,,,0.00,Wunderground v.1.15,2013-05-04 01:18:00,
2013-05-03 21:22:00,54.3,42.8,30.34,North,360,7.0,10.0,65,0.00,,,0.00,Wunderground v.1.15,2013-05-04 01:22:00,
2013-05-03 21:24:00,54.1,42.6,30.34,North,360,7.0,11.0,65,0.00,,,0.00,Wunderground v.1.15,2013-05-04 01:24:00,
2013-05-03 21:26:00,53.8,42.7,30.34,North,360,8.0,11.0,66,0.00,,,0.00,Wunderground v.1.15,2013-05-04 01:26:00,
2013-05-03 21:30:00,53.8,42.7,30.34,North,360,8.0,8.0,66,0.00,,,0.00,Wunderground v.1.15,2013-05-04 01:30:00,
2013-05-03 21:32:00,53.8,42.7,30.34,North,360,8.0,8.0,66,0.00,,,0.00,Wunderground v.1.15,2013-05-04 01:32:00,
2013-05-03 21:34:00,53.7,42.6,30.34,North,360,8.0,8.0,66,0.00,,,0.00,Wunderground v.1.15,2013-05-04 01:34:00,
2013-05-03 21:36:00,53.5,42.4,30.34,North,360,7.0,11.0,66,0.00,,,0.00,Wunderground v.1.15,2013-05-04 01:36:00,
2013-05-03 21:38:00,53.3,42.2,30.34,North,360,8.0,11.0,66,0.00,,,0.00,Wunderground v.1.15,2013-05-04 01:38:00,
2013-05-03 21:44:00,53.1,42.4,30.34,North,360,9.0,11.0,67,0.00,,,0.00,Wunderground v.1.15,2013-05-04 01:44:00,
2013-05-03 21:46:00,53.1,42.4,30.34,North,360,8.0,11.0,67,0.00,,,0.00,Wunderground v.1.15,2013-05-04 01:46:00,
2013-05-03 21:50:00,52.9,42.2,30.34,North,360,7.0,13.0,67,0.00,,,0.00,Wunderground v.1.15,2013-05-04 01:50:00,
2013-05-03 21:52:00,52.9,42.2,30.34,North,360,7.0,13.0,67,0.00,,,0.00,Wunderground v.1.15,2013-05-04 01:52:00,
2013-05-03 21:56:00,53.0,42.3,30.33,North,360,6.0,13.0,67,0.00,,,0.00,Wunderground v.1.15,2013-05-04 01:56:00,
2013-05-03 21:58:00,53.0,42.3,30.34,North,360,5.0,13.0,67,0.00,,,0.00,Wunderground v.1.15,2013-05-04 01:58:00,
2013-05-03 22:02:00,52.9,42.2,30.34,North,360,6.0,7.0,67,0.00,,,0.00,Wunderground v.1.15,2013-05-04 02:02:00,
2013-05-03 22:04:00,52.7,42.0,30.34,North,360,7.0,7.0,67,0.00,,,0.00,Wunderground v.1.15,2013-05-04 02:04:00,
2013-05-03 22:06:00,52.6,41.9,30.34,North,360,7.0,7.0,67,0.00,,,0.00,Wunderground v.1.15,2013-05-04 02:06:00,
2013-05-03 22:08:00,52.5,42.2,30.34,North,360,7.0,7.0,68,0.00,,,0.00,Wunderground v.1.15,2013-05-04 02:08:00,
2013-05-03 22:10:00,52.6,42.3,30.34,North,360,7.0,7.0,68,0.00,,,0.00,Wunderground v.1.15,2013-05-04 02:10:00,
2013-05-03 22:14:00,52.6,42.3,30.34,North,360,5.0,7.0,68,0.00,,,0.00,Wunderground v.1.15,2013-05-04 02:14:00,
2013-05-03 22:16:00,52.6,42.3,30.34,North,360,5.0,7.0,68,0.00,,,0.00,Wunderground v.1.15,2013-05-04 02:16:00,
2013-05-03 22:20:00,52.5,42.2,30.34,North,360,4.0,5.0,68,0.00,,,0.00,Wunderground v.1.15,2013-05-04 02:20:00,
2013-05-03 22:22:00,52.5,42.2,30.34,North,360,4.0,6.0,68,0.00,,,0.00,Wunderground v.1.15,2013-05-04 02:22:00,
2013-05-03 22:26:00,52.4,42.5,30.34,North,360,4.0,6.0,69,0.00,,,0.00,Wunderground v.1.15,2013-05-04 02:26:00,
2013-05-03 22:28:00,52.4,42.5,30.34,North,360,4.0,7.0,69,0.00,,,0.00,Wunderground v.1.15,2013-05-04 02:28:00,
2013-05-03 22:32:00,52.1,42.2,30.33,North,360,5.0,7.0,69,0.00,,,0.00,Wunderground v.1.15,2013-05-04 02:32:00,
2013-05-03 22:34:00,52.0,42.1,30.33,North,360,5.0,7.0,69,0.00,,,0.00,Wunderground v.1.15,2013-05-04 02:34:00,
2013-05-03 22:36:00,52.0,42.1,30.33,North,360,5.0,7.0,69,0.00,,,0.00,Wunderground v.1.15,2013-05-04 02:36:00,
2013-05-03 22:38:00,52.0,42.1,30.33,North,360,5.0,7.0,69,0.00,,,0.00,Wunderground v.1.15,2013-05-04 02:38:00,
2013-05-03 22:42:00,52.0,42.5,30.33,North,360,5.0,5.0,70,0.00,,,0.00,Wunderground v.1.15,2013-05-04 02:42:00,
2013-05-03 22:44:00,52.0,42.5,30.33,North,360,4.0,6.0,70,0.00,,,0.00,Wunderground v.1.15,2013-05-04 02:44:00,
2013-05-03 22:46:00,51.9,42.0,30.33,North,360,5.0,6.0,69,0.00,,,0.00,Wunderground v.1.15,2013-05-04 02:46:00,
2013-05-03 22:48:00,51.9,42.4,30.33,North,360,5.0,6.0,70,0.00,,,0.00,Wunderground v.1.15,2013-05-04 02:48:00,
2013-05-03 22:50:00,51.8,42.3,30.33,North,360,5.0,5.0,70,0.00,,,0.00,Wunderground v.1.15,2013-05-04 02:50:00,
2013-05-03 22:52:00,51.8,42.3,30.33,North,360,5.0,5.0,70,0.00,,,0.00,Wunderground v.1.15,2013-05-04 02:52:00,
2013-05-03 22:54:00,51.7,42.2,30.33,North,360,5.0,5.0,70,0.00,,,0.00,Wunderground v.1.15,2013-05-04 02:54:00,
2013-05-03 22:58:00,51.6,42.1,30.33,North,360,5.0,5.0,70,0.00,,,0.00,Wunderground v.1.15,2013-05-04 02:58:00,
2013-05-03 23:00:00,51.6,42.1,30.33,North,360,5.0,5.0,70,0.00,,,0.00,Wunderground v.1.15,2013-05-04 03:00:00,
2013-05-03 23:02:00,51.5,42.4,30.33,North,360,5.0,5.0,71,0.00,,,0.00,Wunderground v.1.15,2013-05-04 03:02:00,
2013-05-03 23:06:00,51.3,42.2,30.34,North,360,5.0,8.0,71,0.00,,,0.00,Wunderground v.1.15,2013-05-04 03:06:00,
2013-05-03 23:10:00,51.2,42.1,30.33,North,360,5.0,9.0,71,0.00,,,0.00,Wunderground v.1.15,2013-05-04 03:10:00,
2013-05-03 23:14:00,51.0,42.3,30.33,North,360,6.0,9.0,72,0.00,,,0.00,Wunderground v.1.15,2013-05-04 03:14:00,
2013-05-03 23:16:00,51.0,42.3,30.33,North,360,6.0,9.0,72,0.00,,,0.00,Wunderground v.1.15,2013-05-04 03:16:00,
2013-05-03 23:18:00,50.9,42.2,30.33,North,360,6.0,9.0,72,0.00,,,0.00,Wunderground v.1.15,2013-05-04 03:18:00,
2013-05-03 23:20:00,50.9,42.6,30.33,North,360,6.0,6.0,73,0.00,,,0.00,Wunderground v.1.15,2013-05-04 03:20:00,
2013-05-03 23:22:00,50.9,42.2,30.33,North,360,6.0,7.0,72,0.00,,,0.00,Wunderground v.1.15,2013-05-04 03:22:00,
2013-05-03 23:24:00,50.9,42.2,30.33,North,360,6.0,7.0,72,0.00,,,0.00,Wunderground v.1.15,2013-05-04 03:24:00,
2013-05-03 23:30:00,50.6,42.3,30.33,North,360,6.0,7.0,73,0.00,,,0.00,Wunderground v.1.15,2013-05-04 03:30:00,
2013-05-03 23:34:00,50.5,42.2,30.33,North,360,7.0,10.0,73,0.00,,,0.00,Wunderground v.1.15,2013-05-04 03:34:00,
2013-05-03 23:36:00,50.6,42.6,30.33,North,360,7.0,10.0,74,0.00,,,0.00,Wunderground v.1.15,2013-05-04 03:36:00,
2013-05-03 23:40:00,50.6,42.3,30.33,North,360,7.0,9.0,73,0.00,,,0.00,Wunderground v.1.15,2013-05-04 03:40:00,
2013-05-03 23:42:00,50.4,42.1,30.33,North,360,7.0,9.0,73,0.00,,,0.00,Wunderground v.1.15,2013-05-04 03:42:00,
2013-05-03 23:44:00,50.4,42.4,30.33,North,360,6.0,9.0,74,0.00,,,0.00,Wunderground v.1.15,2013-05-04 03:44:00,
2013-05-03 23:50:00,50.4,42.4,30.33,North,360,7.0,7.0,74,0.00,,,0.00,Wunderground v.1.15,2013-05-04 03:50:00,
2013-05-03 23:52:00,50.3,42.3,30.33,North,360,6.0,7.0,74,0.00,,,0.00,Wunderground v.1.15,2013-05-04 03:52:00,
2013-05-03 23:56:00,50.5,42.5,30.33,North,360,6.0,9.0,74,0.00,,,0.00,Wunderground v.1.15,2013-05-04 03:56:00,
2013-05-03 23:58:00,50.4,42.4,30.33,North,360,6.0,10.0,74,0.00,,,0.00,Wunderground v.1.15,2013-05-04 03:58:00,